Cosmos 1220 - Orbit

View from above orbital plane
View from above orbital plane
View from above satellite
View from above satellite

Ground track
Ground track

The orbit data is extracted from the following two-line orbital elements,

1 12054U 80089A   13143.80534104  .00021114  00000-0  30035-3 0  2642
2 12054 064.9601 253.1581 0045509 278.1517 225.6705 15.55169144688447
Epoch (UTC): 23 May 2013 19:19:41
Eccentricity: 0.0045509
inclination: 64.9601°
perigee height: 371 km
apogee height: 432 km
right ascension of ascending node: 253.1581°
argument of perigee: 278.1517°
revolutions per day: 15.55169144
mean anomaly at epoch: 225.6705°
orbit number at epoch: 68844

The dashed part of the orbit path shows where the satellite is in the earth's shadow,  

Developed and maintained by Chris Peat, Heavens-Above GmbH. Please read the updated FAQ before sending e-mail. Imprint. DLR